Time,TemperatureF,DewpointF,PressureIn,WindDirection,WindDirectionDegrees,WindSpeedMPH,WindSpeedGustMPH,Humidity,HourlyPrecipIn,Conditions,Clouds,dailyrainin,SolarRadiationWatts/m^2,SoftwareType,DateUTC
2013-05-01 00:01:00,74.5,22.0,29.54,WSW,242,0.0,0.0,14,0.00,,,0.00,0,weatherlink.com 1.10,2013-05-01 06:01:00,
2013-05-01 00:16:00,74.5,20.0,29.54,WSW,242,0.0,0.0,13,0.00,,,0.00,0,weatherlink.com 1.10,2013-05-01 06:16:00,
2013-05-01 00:31:00,74.4,20.0,29.55,WSW,242,0.0,0.0,13,0.00,,,0.00,0,weatherlink.com 1.10,2013-05-01 06:31:00,
2013-05-01 00:46:00,74.1,22.0,29.55,WSW,242,0.0,0.0,14,0.00,,,0.00,0,weatherlink.com 1.10,2013-05-01 06:46:00,
2013-05-01 01:01:00,74.3,22.0,29.55,WSW,242,0.0,0.0,14,0.00,,,0.00,0,weatherlink.com 1.10,2013-05-01 07:01:00,
2013-05-01 01:16:00,73.4,21.0,29.55,WSW,242,0.0,0.0,14,0.00,,,0.00,0,weatherlink.com 1.10,2013-05-01 07:16:00,
2013-05-01 01:31:00,72.5,22.0,29.55,WSW,242,0.0,0.0,15,0.00,,,0.00,0,weatherlink.com 1.10,2013-05-01 07:31:00,
2013-05-01 01:46:00,72.7,21.0,29.55,WSW,242,0.0,0.0,14,0.00,,,0.00,0,weatherlink.com 1.10,2013-05-01 07:46:00,
2013-05-01 02:01:00,72.5,21.0,29.55,WSW,242,0.0,0.0,14,0.00,,,0.00,0,weatherlink.com 1.10,2013-05-01 08:01:00,
2013-05-01 02:16:00,72.8,21.0,29.55,WSW,244,0.0,7.0,14,0.00,,,0.00,0,weatherlink.com 1.10,2013-05-01 08:16:00,
2013-05-01 02:31:00,74.7,22.0,29.55,West,260,0.0,8.0,14,0.00,,,0.00,0,weatherlink.com 1.10,2013-05-01 08:31:00,
2013-05-01 02:46:00,75.5,21.0,29.55,West,265,0.0,4.0,13,0.00,,,0.00,0,weatherlink.com 1.10,2013-05-01 08:46:00,
2013-05-01 03:01:00,74.9,22.0,29.56,West,265,1.0,4.0,14,0.00,,,0.00,0,weatherlink.com 1.10,2013-05-01 09:01:00,
2013-05-01 03:16:00,74.6,22.0,29.57,West,265,0.0,1.0,14,0.00,,,0.00,0,weatherlink.com 1.10,2013-05-01 09:16:00,
2013-05-01 03:31:00,73.6,23.0,29.57,West,265,0.0,2.0,15,0.00,,,0.00,0,weatherlink.com 1.10,2013-05-01 09:31:00,
2013-05-01 03:46:00,73.1,23.0,29.58,West,264,0.0,3.0,15,0.00,,,0.00,0,weatherlink.com 1.10,2013-05-01 09:46:00,
2013-05-01 04:01:00,71.8,22.0,29.58,West,265,1.0,1.0,15,0.00,,,0.00,0,weatherlink.com 1.10,2013-05-01 10:01:00,
2013-05-01 04:16:00,70.3,23.0,29.59,West,265,0.0,0.0,17,0.00,,,0.00,0,weatherlink.com 1.10,2013-05-01 10:16:00,
2013-05-01 04:31:00,68.7,22.0,29.60,West,265,0.0,0.0,17,0.00,,,0.00,0,weatherlink.com 1.10,2013-05-01 10:31:00,
2013-05-01 04:46:00,68.1,22.0,29.60,West,264,0.0,0.0,17,0.00,,,0.00,0,weatherlink.com 1.10,2013-05-01 10:46:00,
2013-05-01 05:01:00,67.9,21.0,29.61,West,265,0.0,0.0,17,0.00,,,0.00,0,weatherlink.com 1.10,2013-05-01 11:01:00,
2013-05-01 05:16:00,67.8,23.0,29.62,West,264,0.0,0.0,18,0.00,,,0.00,0,weatherlink.com 1.10,2013-05-01 11:16:00,
2013-05-01 05:31:00,67.7,23.0,29.62,West,265,0.0,0.0,18,0.00,,,0.00,0,weatherlink.com 1.10,2013-05-01 11:31:00,
2013-05-01 05:46:00,68.1,23.0,29.63,West,265,0.0,3.0,18,0.00,,,0.00,0,weatherlink.com 1.10,2013-05-01 11:46:00,
2013-05-01 06:02:00,68.7,23.0,29.64,West,264,0.0,1.0,18,0.00,,,0.00,0,weatherlink.com 1.10,2013-05-01 12:02:00,
2013-05-01 06:17:00,69.0,24.0,29.65,West,265,0.0,1.0,18,0.00,,,0.00,0,weatherlink.com 1.10,2013-05-01 12:17:00,
2013-05-01 06:32:00,68.6,25.0,29.65,West,264,0.0,1.0,19,0.00,,,0.00,11,weatherlink.com 1.10,2013-05-01 12:32:00,
2013-05-01 06:47:00,68.9,25.0,29.66,West,265,0.0,1.0,19,0.00,,,0.00,21,weatherlink.com 1.10,2013-05-01 12:47:00,
2013-05-01 07:02:00,69.2,25.0,29.67,West,264,0.0,1.0,19,0.00,,,0.00,60,weatherlink.com 1.10,2013-05-01 13:02:00,
2013-05-01 07:17:00,70.1,26.0,29.67,West,265,0.0,1.0,19,0.00,,,0.00,102,weatherlink.com 1.10,2013-05-01 13:17:00,
2013-05-01 07:32:00,70.6,26.0,29.68,West,265,1.0,4.0,19,0.00,,,0.00,156,weatherlink.com 1.10,2013-05-01 13:32:00,
2013-05-01 07:47:00,70.9,27.0,29.68,West,265,1.0,4.0,19,0.00,,,0.00,213,weatherlink.com 1.10,2013-05-01 13:47:00,
2013-05-01 08:02:00,72.4,28.0,29.68,West,264,0.0,4.0,19,0.00,,,0.00,258,weatherlink.com 1.10,2013-05-01 14:02:00,
2013-05-01 08:17:00,73.8,29.0,29.68,West,265,0.0,3.0,19,0.00,,,0.00,309,weatherlink.com 1.10,2013-05-01 14:17:00,
2013-05-01 08:32:00,74.8,27.0,29.68,WSW,250,1.0,6.0,17,0.00,,,0.00,357,weatherlink.com 1.10,2013-05-01 14:32:00,
2013-05-01 08:47:00,75.4,26.0,29.69,SW,236,5.0,9.0,16,0.00,,,0.00,408,weatherlink.com 1.10,2013-05-01 14:47:00,
2013-05-01 09:02:00,76.2,27.0,29.69,WSW,239,1.0,9.0,16,0.00,,,0.00,457,weatherlink.com 1.10,2013-05-01 15:02:00,
2013-05-01 09:17:00,76.7,26.0,29.70,WSW,237,5.0,13.0,15,0.00,,,0.00,504,weatherlink.com 1.10,2013-05-01 15:17:00,
2013-05-01 09:32:00,77.8,27.0,29.70,SW,236,0.0,8.0,15,0.00,,,0.00,552,weatherlink.com 1.10,2013-05-01 15:32:00,
2013-05-01 09:47:00,77.6,28.0,29.70,WSW,242,2.0,12.0,16,0.00,,,0.00,598,weatherlink.com 1.10,2013-05-01 15:47:00,
2013-05-01 10:03:00,78.5,27.0,29.70,WSW,237,3.0,12.0,15,0.00,,,0.00,638,weatherlink.com 1.10,2013-05-01 16:03:00,
2013-05-01 10:18:00,80.2,28.0,29.70,West,269,4.0,10.0,15,0.00,,,0.00,680,weatherlink.com 1.10,2013-05-01 16:18:00,
2013-05-01 10:33:00,81.7,28.0,29.70,WNW,290,4.0,11.0,14,0.00,,,0.00,719,weatherlink.com 1.10,2013-05-01 16:33:00,
2013-05-01 10:48:00,82.4,29.0,29.70,WNW,286,5.0,14.0,14,0.00,,,0.00,752,weatherlink.com 1.10,2013-05-01 16:48:00,
2013-05-01 11:03:00,82.6,30.0,29.70,SW,236,3.0,11.0,15,0.00,,,0.00,786,weatherlink.com 1.10,2013-05-01 17:03:00,
2013-05-01 11:18:00,83.9,28.0,29.70,SW,236,1.0,17.0,13,0.00,,,0.00,816,weatherlink.com 1.10,2013-05-01 17:18:00,
2013-05-01 11:33:00,83.9,28.0,29.69,WNW,288,6.0,13.0,13,0.00,,,0.00,842,weatherlink.com 1.10,2013-05-01 17:33:00,
2013-05-01 11:48:00,83.3,28.0,29.69,SW,234,6.0,14.0,13,0.00,,,0.00,861,weatherlink.com 1.10,2013-05-01 17:48:00,
2013-05-01 12:03:00,83.6,28.0,29.68,WSW,241,0.0,13.0,13,0.00,,,0.00,879,weatherlink.com 1.10,2013-05-01 18:03:00,
2013-05-01 12:18:00,84.2,26.0,29.68,WSW,240,0.0,11.0,12,0.00,,,0.00,900,weatherlink.com 1.10,2013-05-01 18:18:00,
2013-05-01 12:33:00,86.8,28.0,29.68,West,259,3.0,12.0,12,0.00,,,0.00,909,weatherlink.com 1.10,2013-05-01 18:33:00,
2013-05-01 12:48:00,86.6,26.0,29.68,WNW,293,1.0,12.0,11,0.00,,,0.00,914,weatherlink.com 1.10,2013-05-01 18:48:00,
2013-05-01 13:03:00,84.8,27.0,29.68,SW,234,3.0,12.0,12,0.00,,,0.00,914,weatherlink.com 1.10,2013-05-01 19:03:00,
2013-05-01 13:18:00,85.8,28.0,29.68,SW,232,8.0,12.0,12,0.00,,,0.00,914,weatherlink.com 1.10,2013-05-01 19:18:00,
2013-05-01 13:33:00,84.7,25.0,29.68,SW,230,2.0,17.0,11,0.00,,,0.00,904,weatherlink.com 1.10,2013-05-01 19:33:00,
2013-05-01 13:48:00,87.5,27.0,29.68,SW,221,1.0,10.0,11,0.00,,,0.00,904,weatherlink.com 1.10,2013-05-01 19:48:00,
2013-05-01 14:03:00,86.7,26.0,29.68,SW,236,7.0,14.0,11,0.00,,,0.00,895,weatherlink.com 1.10,2013-05-01 20:03:00,
2013-05-01 14:18:00,86.0,23.0,29.68,SW,232,1.0,11.0,10,0.00,,,0.00,872,weatherlink.com 1.10,2013-05-01 20:18:00,
2013-05-01 14:33:00,88.5,25.0,29.68,WNW,286,2.0,9.0,10,0.00,,,0.00,854,weatherlink.com 1.10,2013-05-01 20:33:00,
2013-05-01 14:48:00,87.5,25.0,29.68,SW,229,7.0,12.0,10,0.00,,,0.00,828,weatherlink.com 1.10,2013-05-01 20:48:00,
2013-05-01 15:03:00,87.4,24.0,29.67,SW,224,3.0,11.0,10,0.00,,,0.00,800,weatherlink.com 1.10,2013-05-01 21:03:00,
2013-05-01 15:18:00,86.1,23.0,29.66,SW,231,5.0,14.0,10,0.00,,,0.00,766,weatherlink.com 1.10,2013-05-01 21:18:00,
2013-05-01 15:33:00,87.6,22.0,29.66,WSW,238,9.0,10.0,9,0.00,,,0.00,735,weatherlink.com 1.10,2013-05-01 21:33:00,
2013-05-01 15:48:00,87.8,25.0,29.66,SW,225,7.0,13.0,10,0.00,,,0.00,698,weatherlink.com 1.10,2013-05-01 21:48:00,
2013-05-01 16:03:00,87.5,25.0,29.65,SW,226,7.0,10.0,10,0.00,,,0.00,654,weatherlink.com 1.10,2013-05-01 22:03:00,
2013-05-01 16:18:00,87.6,25.0,29.65,SW,230,1.0,12.0,10,0.00,,,0.00,610,weatherlink.com 1.10,2013-05-01 22:18:00,
2013-05-01 16:33:00,87.9,22.0,29.65,SW,221,5.0,14.0,9,0.00,,,0.00,580,weatherlink.com 1.10,2013-05-01 22:33:00,
2013-05-01 16:48:00,87.7,19.0,29.65,SW,236,5.0,19.0,8,0.00,,,0.00,531,weatherlink.com 1.10,2013-05-01 22:48:00,
2013-05-01 17:03:00,87.8,19.0,29.66,SW,236,9.0,13.0,8,0.00,,,0.00,482,weatherlink.com 1.10,2013-05-01 23:03:00,
2013-05-01 17:18:00,86.8,19.0,29.66,SW,227,7.0,15.0,8,0.00,,,0.00,429,weatherlink.com 1.10,2013-05-01 23:18:00,
2013-05-01 17:33:00,86.9,21.0,29.65,SSW,209,5.0,11.0,9,0.00,,,0.00,380,weatherlink.com 1.10,2013-05-01 23:33:00,
2013-05-01 17:48:00,86.5,18.0,29.65,WSW,241,11.0,15.0,8,0.00,,,0.00,329,weatherlink.com 1.10,2013-05-01 23:48:00,
2013-05-01 18:03:00,86.7,21.0,29.65,SW,236,6.0,17.0,9,0.00,,,0.00,276,weatherlink.com 1.10,2013-05-02 00:03:00,
2013-05-01 18:18:00,85.9,21.0,29.65,SW,225,3.0,17.0,9,0.00,,,0.00,225,weatherlink.com 1.10,2013-05-02 00:18:00,
2013-05-01 18:33:00,85.2,20.0,29.65,WSW,238,7.0,12.0,9,0.00,,,0.00,42,weatherlink.com 1.10,2013-05-02 00:33:00,
2013-05-01 18:48:00,84.9,20.0,29.66,SW,229,3.0,16.0,9,0.00,,,0.00,30,weatherlink.com 1.10,2013-05-02 00:48:00,
2013-05-01 19:03:00,84.6,20.0,29.66,SW,233,2.0,11.0,9,0.00,,,0.00,25,weatherlink.com 1.10,2013-05-02 01:03:00,
2013-05-01 19:18:00,84.1,19.0,29.66,SW,233,3.0,5.0,9,0.00,,,0.00,16,weatherlink.com 1.10,2013-05-02 01:18:00,
2013-05-01 19:33:00,83.6,19.0,29.66,SW,232,1.0,6.0,9,0.00,,,0.00,9,weatherlink.com 1.10,2013-05-02 01:33:00,
2013-05-01 19:48:00,82.9,18.0,29.67,SW,230,6.0,6.0,9,0.00,,,0.00,0,weatherlink.com 1.10,2013-05-02 01:48:00,
2013-05-01 20:03:00,82.6,21.0,29.67,SW,232,2.0,7.0,10,0.00,,,0.00,0,weatherlink.com 1.10,2013-05-02 02:03:00,
2013-05-01 20:18:00,81.9,20.0,29.68,SW,232,1.0,4.0,10,0.00,,,0.00,0,weatherlink.com 1.10,2013-05-02 02:18:00,
2013-05-01 20:34:00,81.4,20.0,29.68,SW,232,1.0,3.0,10,0.00,,,0.00,0,weatherlink.com 1.10,2013-05-02 02:34:00,
2013-05-01 20:49:00,80.7,19.0,29.69,SW,232,0.0,2.0,10,0.00,,,0.00,0,weatherlink.com 1.10,2013-05-02 02:49:00,
2013-05-01 21:04:00,79.5,20.0,29.69,SW,232,0.0,1.0,11,0.00,,,0.00,0,weatherlink.com 1.10,2013-05-02 03:04:00,
2013-05-01 21:19:00,78.2,22.0,29.70,SW,232,0.0,0.0,12,0.00,,,0.00,0,weatherlink.com 1.10,2013-05-02 03:19:00,
2013-05-01 21:34:00,77.1,21.0,29.70,SW,232,0.0,0.0,12,0.00,,,0.00,0,weatherlink.com 1.10,2013-05-02 03:34:00,
2013-05-01 21:49:00,76.3,20.0,29.71,SW,232,0.0,0.0,12,0.00,,,0.00,0,weatherlink.com 1.10,2013-05-02 03:49:00,
2013-05-01 22:04:00,75.7,20.0,29.72,SW,232,0.0,0.0,12,0.00,,,0.00,0,weatherlink.com 1.10,2013-05-02 04:04:00,
2013-05-01 22:19:00,75.1,21.0,29.72,SW,232,0.0,0.0,13,0.00,,,0.00,0,weatherlink.com 1.10,2013-05-02 04:19:00,
2013-05-01 22:34:00,74.6,22.0,29.72,SW,232,0.0,0.0,14,0.00,,,0.00,0,weatherlink.com 1.10,2013-05-02 04:34:00,
2013-05-01 22:49:00,74.2,20.0,29.73,SW,232,0.0,0.0,13,0.00,,,0.00,0,weatherlink.com 1.10,2013-05-02 04:49:00,
2013-05-01 23:04:00,73.4,21.0,29.73,SW,232,0.0,0.0,14,0.00,,,0.00,0,weatherlink.com 1.10,2013-05-02 05:04:00,
2013-05-01 23:19:00,72.8,22.0,29.73,SW,232,0.0,0.0,15,0.00,,,0.00,0,weatherlink.com 1.10,2013-05-02 05:19:00,
2013-05-01 23:34:00,72.4,22.0,29.73,SW,232,0.0,0.0,15,0.00,,,0.00,0,weatherlink.com 1.10,2013-05-02 05:34:00,
2013-05-01 23:49:00,72.3,24.0,29.74,SW,232,0.0,1.0,16,0.00,,,0.00,0,weatherlink.com 1.10,2013-05-02 05:49:00,